Satellite-Ground Cal/Val Site Overpasses Predictions

Prediction of Satellite NPP Overpassing Cal/Val Site: Antarctic Dome C

Ground Cal/Val Site Location: Latitude: -75.10, Longitude: 123.35; Satellite-Ground Site NADIR distance within 100 km.

Table of predicted overpasses for the next 14.0 days since TLE Epoch: 11/15/2013
Interval Starting Time Ending Time Minimum Distance Time Minimum Distance (km)
1 11/18/2013 14:56:12 11/18/2013 14:56:40 11/18/2013 14:56:26 24.42
2 11/19/2013 14:37:28 11/19/2013 14:37:44 11/19/2013 14:37:36 82.57
3 11/20/2013 07:39:01 11/20/2013 07:39:29 11/20/2013 07:39:15 30.36
4 11/21/2013 07:20:17 11/21/2013 07:20:34 11/21/2013 07:20:26 79.86
5 11/23/2013 15:02:30 11/23/2013 15:02:53 11/23/2013 15:02:41 60.94
6 11/24/2013 14:43:39 11/24/2013 14:44:05 11/24/2013 14:43:52 48.22
7 11/25/2013 07:45:20 11/25/2013 07:45:42 11/25/2013 07:45:31 65.03
8 11/26/2013 07:26:28 11/26/2013 07:26:54 11/26/2013 07:26:41 43.06
9 11/28/2013 15:08:55 11/28/2013 15:09:00 11/28/2013 15:08:57 98.01


NCC Satellite Cal/Val Overpasses Prediction Service
